Regional Weather Roundup
Issued by NWS

Home | Current Version | Previous Version | Graphics & Text | Print | Product List | Glossary On
Versions: 1 2 3 4 5 6 7 8 9 10 11 12 13 14 15 16 17 18 19 20 21 22 23 24 25 26 27 28 29 30 31 32 33 34 35 36 37 38 39 40 41 42 43 44 45 46 47 48 49 50
000
ASUS43 KFSD 071402
RWRSD

WEATHER ROUNDUP FOR SOUTH DAKOTA
NATIONAL WEATHER SERVICE SIOUX FALLS SD
900 AM CDT TUE JUL 07 2015

NOTE: "FAIR" INDICATES FEW OR NO CLOUDS BELOW 12,000 FEET WITH NO
SIGNIFICANT WEATHER AND/OR OBSTRUCTIONS TO VISIBILITY.


SDZ001>005-009-010-012>017-071500-
NORTHWEST AND NORTH CENTRAL SOUTH DAKOTA

CITY           SKY/WX    TMP DP  RH WIND       PRES   REMARKS
BUFFALO          N/A     63  54  72 SE10      30.07F
FAITH            N/A     62  55  77 SE13      30.15S
MOBRIDGE       SUNNY     60  54  80 SE8       30.16F
$$

SDZ012>016-024>037-041>051-057-063-072>074-071500-
SOUTHWEST AND SOUTH CENTRAL SOUTH DAKOTA

CITY           SKY/WX    TMP DP  RH WIND       PRES   REMARKS
RAPID CTY ARPT MOSUNNY   62  59  90 SE7       30.15S
PIERRE         SUNNY     60  55  83 SE8       30.17R
CUSTER         CLOUDY    56  52  86 S5        30.23F FOG
ELLSWORTH AFB  MOSUNNY   62  59  87 S10       30.14S
PHILIP         MOSUNNY   61  58  90 E7        30.16S
PINE RIDGE     PTSUNNY   63  54  72 S7        30.18S
WINNER         FAIR      63  56  78 SE10      30.20R HAZE
$$

SDZ004>011-016>023-039-040-071500-
NORTHEAST SOUTH DAKOTA

CITY           SKY/WX    TMP DP  RH WIND       PRES   REMARKS
ABERDEEN       SUNNY     60  48  64 E10       30.20S
WATERTOWN      SUNNY     58  48  69 NE9       30.20S
BROOKINGS      SUNNY     55  46  71 NE6       30.23R
SISSETON         N/A     60  49  66 VRB5      30.21S
$$

SDZ017-020-022-023-036>040-048>070-071500-
SOUTHEAST SOUTH DAKOTA

CITY           SKY/WX    TMP DP  RH WIND       PRES   REMARKS
SIOUX FALLS    MOSUNNY   58  48  69 NE14      30.21R
HURON          SUNNY     59  51  75 E8        30.21R
CHAMBERLAIN    SUNNY     60  54  81 SE10      30.20R
MITCHELL       MOSUNNY   60  53  77 E10       30.22R
YANKTON        SUNNY     57  50  77 E5        30.20S
$$

ABBREVIATIONS USED IN REMARKS
   TC - TEMPERATURE IN CELSIUS
  WCI - WIND CHILL INDEX
   HX - HEAT INDEX
  VSB - VISIBILITY




USA.gov is the U.S. government's official web portal to all federal, state and local government web resources and services.